Location: Paris
(48.6709°N, 2.3750°E)
Time: 07:46:08
(UTC+02:00)

CUBESAT XI-V - Pass Details

Date: 05 July 2022
Orbit: 668 x 690 km, 98.1° (Epoch: 18 August)

Event Time Altitude Azimuth Distance (km) Brightness Sun altitude
Exits shadow 04:04:28 19° 201° (SSW) 1,586 ? -12.9°
Maximum altitude 04:07:21 40° 262° (W) 987 ? -12.7°
Drops below altitude 10° 04:11:42 10° 333° (NNW) 2,108 ? -12.3°
Sets 04:14:03 0° 340° (NNW) 3,025 ? -12.1°
